GFSNGP_con_3kmhel_162.txt.gz
Helicity
102 93 75 52 8 -60 -19 66 108 50 70 69 79 119 135 138 272 276 290 328 364 316 280 243 195 167 125 112 83 51 65 70 63 51 76 79 67 55 44 32 32 32 62 85
115 70 55 52 63 71 32 39 73 71 43 121 135 141 219 167 191 203 215 282 255 217 227 196 172 140 119 77 60 69 50 35 64 87 87 73 61 47 42 36 29 38 40 45
96 43 41 36 100 98 107 104 118 111 134 83 65 62 98 133 182 200 227 206 185 160 171 144 122 117 90 59 54 62 65 73 99 95 82 75 61 48 41 29 18 25 20 20
89 60 53 80 39 53 68 54 91 95 130 73 36 69 82 118 163 163 172 152 140 128 124 108 101 83 68 66 61 78 113 129 135 111 93 64 58 42 28 16 24 24 14 3
104 114 72 8 -1 44 47 53 77 80 95 71 137 120 122 108 110 137 155 154 125 103 101 82 90 108 157 171 177 182 157 143 121 116 103 72 47 32 27 18 15 8 22 30
132 99 77 19 35 32 59 43 60 56 44 58 97 102 51 76 136 188 188 179 146 106 93 103 109 172 206 195 190 166 137 117 104 95 82 63 44 30 14 14 11 7 21 12
113 129 66 124 35 69 83 27 29 37 71 87 71 55 77 166 183 201 209 194 177 165 139 126 179 209 203 172 144 122 116 107 90 73 74 60 45 27 26 37 37 34 24 22
117 115 144 71 62 102 32 31 33 55 83 108 112 131 147 160 204 229 229 210 208 190 154 175 193 212 170 134 121 127 116 98 78 69 59 48 47 37 42 62 65 33 30 23
144 73 105 110 82 80 42 23 31 90 114 167 165 111 131 164 198 195 193 178 174 175 166 163 171 172 146 104 129 120 110 90 74 64 55 80 96 92 96 97 69 49 53 37
-16 33 32 44 62 62 88 26 88 141 175 152 136 133 145 188 207 184 135 133 148 147 140 150 138 128 125 120 120 119 100 80 66 63 80 100 105 100 117 109 95 80 61 50
-2 9 13 -9 102 66 32 66 148 150 138 132 146 121 136 180 192 141 102 88 93 90 87 111 123 114 119 112 112 104 88 74 71 97 108 122 117 84 89 74 76 73 52 45
4 -4 35 24 -38 -10 18 84 98 136 142 123 121 99 105 131 158 127 89 84 78 74 75 80 127 128 133 122 105 100 87 80 90 122 136 132 125 125 118 100 90 79 74 71
-10 -32 -17 68 -38 34 61 90 118 132 155 165 127 103 93 102 121 100 112 117 109 103 89 128 141 141 151 128 115 109 96 78 92 132 142 136 120 127 119 107 96 85 75 63
9 26 64 51 56 88 153 145 145 135 154 145 138 94 75 84 88 124 125 118 136 144 139 162 146 129 113 118 118 104 114 126 114 130 152 156 156 143 137 114 96 86 57 69
32 65 51 75 142 157 198 204 194 171 160 156 132 104 91 103 112 122 161 166 171 172 163 183 167 143 147 168 163 142 149 167 190 216 204 185 173 161 136 124 109 113 130 122
49 75 93 140 145 153 173 196 215 180 161 166 161 134 134 146 158 188 194 209 224 178 169 195 185 159 171 193 192 179 177 207 226 227 220 207 191 183 163 146 147 152 143 137
-2 122 148 171 146 125 133 162 165 139 156 159 137 176 216 221 219 206 185 165 181 183 167 178 152 152 161 178 187 175 193 194 188 193 178 160 161 156 151 143 149 163 173 173
81 115 116 59 107 155 133 116 142 142 130 126 147 194 206 197 184 189 188 205 221 207 144 132 159 164 162 159 163 166 174 175 159 145 138 146 133 132 139 162 175 196 179 196
116 59 77 114 162 175 159 143 130 123 129 138 152 135 136 151 162 161 174 194 180 178 120 151 164 169 170 163 165 157 156 150 152 147 135 153 167 168 179 194 200 192 209 240
80 161 218 234 206 177 159 136 134 138 126 149 163 161 157 145 157 159 145 136 103 88 132 145 162 159 163 188 203 159 156 148 150 147 165 168 171 194 211 217 224 230 232 225
155 177 192 190 178 147 118 97 121 111 97 109 130 121 125 129 134 144 155 129 89 101 133 143 142 149 158 171 183 192 174 176 185 187 198 196 204 217 238 243 235 226 221 211
100 131 138 133 133 124 90 86 103 105 102 106 125 137 147 126 114 106 84 86 104 127 136 135 140 148 148 151 162 195 211 216 205 213 222 222 233 246 239 225 215 208 204 187
89 81 87 86 84 86 84 76 71 73 77 76 82 88 90 80 91 128 119 102 130 124 133 136 134 140 152 166 186 207 218 224 220 217 218 223 210 202 196 192 188 192 191 177
67 69 65 63 79 84 87 55 62 59 67 65 63 67 89 105 99 94 109 134 145 144 144 131 145 172 180 210 229 228 221 217 221 218 202 195 188 187 187 187 183 174 182 186
61 59 62 66 66 65 78 68 83 83 92 91 85 75 92 114 98 108 164 167 170 172 189 217 249 240 237 239 236 241 236 216 195 188 185 182 177 179 170 169 162 161 163 156
61 52 33 38 56 68 74 76 88 88 114 124 124 127 154 164 183 192 203 206 216 258 257 236 227 242 251 260 254 236 212 198 194 187 184 170 168 164 162 151 147 142 136 128
85 85 84 89 73 68 76 81 89 70 89 114 128 130 173 205 211 210 223 243 253 244 235 233 236 247 238 228 215 193 184 181 176 175 170 161 161 153 144 136 134 130 125 123

GFSNGP_con_3kmhel_165.txt.gz
Helicity
101 86 106 111 85 75 93 113 161 78 110 116 113 125 145 170 195 287 330 378 430 423 340 291 237 211 189 164 141 143 128 105 96 74 74 68 54 44 44 44 40 41 56 45
104 78 75 73 95 86 72 80 118 101 61 121 110 148 182 184 171 178 200 251 339 342 287 239 203 193 183 160 137 128 109 97 97 91 76 60 55 61 49 38 34 32 43 37
67 54 83 49 89 79 122 119 127 112 113 129 136 134 110 94 92 128 135 205 245 230 242 226 206 182 145 136 132 95 76 88 99 91 83 66 68 59 49 37 26 30 24 27
83 78 81 62 46 41 63 71 89 91 97 81 79 68 88 73 109 143 148 138 147 157 174 188 173 148 156 140 109 99 101 105 109 99 78 71 65 59 40 32 36 34 31 19
119 102 53 -8 9 51 101 19 29 60 63 65 84 57 59 72 94 114 135 139 139 135 165 138 130 135 138 122 114 109 108 109 110 96 86 71 62 55 50 50 46 42 38 34
165 114 67 21 9 32 46 2 22 58 42 55 75 55 29 71 82 108 130 131 146 132 126 142 126 145 144 117 117 111 112 112 104 95 86 62 59 56 45 40 52 39 45 38
85 114 69 47 13 112 59 57 22 23 12 59 66 45 35 97 115 124 123 151 160 136 124 130 151 155 145 140 116 107 123 119 102 81 73 63 59 52 57 66 59 46 44 36
88 106 59 84 35 73 42 39 25 24 37 70 88 82 99 101 120 145 169 181 159 165 146 132 146 160 154 121 114 129 128 114 95 87 82 73 72 76 79 90 72 43 43 45
38 25 103 35 6 46 58 45 24 16 42 113 126 99 104 102 127 142 177 181 161 179 165 136 134 144 141 115 140 130 120 108 96 86 74 67 64 77 86 91 76 53 57 49
33 12 -3 8 -25 7 30 28 23 28 69 104 123 116 122 122 138 170 184 183 172 185 157 133 110 117 126 141 135 130 114 104 93 84 85 80 82 87 107 92 75 68 68 61
36 38 -12 -26 21 -11 31 15 14 65 85 88 120 113 134 130 143 151 166 146 150 160 136 112 100 113 128 132 131 119 111 104 91 85 88 91 76 75 82 66 76 86 66 63
35 -14 -13 -11 84 -17 0 1 18 93 98 88 90 131 145 126 149 166 138 118 126 129 114 93 108 115 116 114 110 108 101 98 103 101 99 108 113 107 97 87 94 89 83 74
40 33 79 -18 17 8 -20 6 53 82 98 104 97 118 157 161 144 132 106 96 83 68 77 100 109 107 111 120 114 98 100 102 108 114 110 128 122 125 128 113 107 93 76 72
58 71 16 2 35 25 17 52 89 114 102 113 121 126 145 167 126 115 92 71 63 77 90 105 115 97 114 139 115 97 94 105 126 124 130 133 137 137 143 130 107 86 70 72
11 -1 -4 33 30 51 89 132 163 139 130 132 119 129 131 118 102 71 76 98 100 112 99 111 100 77 116 128 120 116 106 105 132 151 155 159 176 163 147 135 109 102 112 107
69 65 52 55 28 89 156 174 180 144 135 140 119 100 77 73 83 91 114 145 140 98 112 111 96 99 121 121 112 107 109 134 159 172 185 178 181 172 153 135 119 106 114 123
27 -17 31 78 123 177 164 139 132 141 157 104 97 116 126 124 124 126 122 105 102 120 116 125 103 137 143 142 156 149 159 167 186 201 193 180 174 163 148 142 134 132 145 143
47 25 50 179 247 263 101 58 91 98 78 99 138 149 161 151 134 132 133 145 158 156 118 104 145 151 149 148 153 157 161 169 174 161 161 161 146 142 144 141 148 184 192 199
76 87 74 79 77 72 83 123 96 92 113 140 147 121 116 127 139 144 151 161 146 135 83 129 161 165 155 141 151 154 156 157 149 148 147 149 157 157 160 164 174 186 212 218
107 93 90 108 155 164 154 132 130 127 112 134 156 146 128 119 132 147 134 129 98 73 137 158 173 161 153 149 143 143 152 158 160 156 158 160 168 160 160 180 204 222 228 220
103 106 121 141 165 166 145 120 125 110 100 108 110 92 101 115 130 134 141 117 89 103 138 155 160 160 153 153 142 144 161 174 173 170 172 175 185 191 212 219 215 214 228 223
88 93 114 117 138 141 120 99 107 104 100 102 112 129 140 131 130 123 95 88 105 116 135 146 153 162 164 163 155 162 169 180 189 197 187 193 212 222 217 213 217 215 206 204
82 77 86 84 84 89 93 83 78 79 79 72 78 82 90 93 102 124 103 95 121 125 148 157 162 170 174 173 177 188 195 195 189 193 202 210 211 205 199 199 198 196 200 199
68 65 69 67 78 79 86 65 70 65 70 69 71 76 95 116 110 100 108 136 152 156 161 167 180 185 184 188 202 207 208 208 208 211 211 206 192 191 189 189 193 174 178 184
64 62 62 68 67 61 72 67 86 83 90 94 85 77 88 102 84 100 139 156 172 188 203 200 214 211 198 203 214 216 211 204 194 182 175 174 166 167 167 166 161 154 158 158
46 46 43 42 57 70 71 68 83 82 99 104 102 103 126 139 152 173 191 206 217 231 236 226 217 216 216 224 232 228 211 194 182 168 162 157 163 162 157 155 144 140 139 138
54 78 86 88 72 70 69 73 89 89 95 93 113 111 138 164 179 198 213 225 242 252 239 218 213 225 238 248 243 218 192 172 161 155 151 157 153 141 141 131 122 123 131 136

GFSNGP_con_3kmhel_168.txt.gz
Helicity
105 94 121 146 138 156 177 166 216 129 178 128 135 102 91 112 130 162 216 287 335 373 411 397 315 229 202 178 149 140 150 119 98 87 64 46 48 54 52 56 56 50 50 34
112 88 88 101 131 135 129 128 157 118 79 125 133 179 141 93 75 98 169 210 254 301 323 304 275 232 208 198 180 175 142 125 107 91 65 57 60 64 57 54 56 46 39 27
110 45 69 89 113 113 141 149 127 112 113 120 100 107 105 105 87 94 139 180 196 208 264 307 256 222 193 195 200 155 146 121 101 76 67 67 61 65 61 57 43 39 31 25
108 64 114 85 94 52 75 90 117 99 96 112 116 70 35 46 57 71 116 125 125 143 203 228 227 205 217 197 156 136 122 109 92 78 81 70 75 71 58 45 50 45 38 27
133 104 58 22 22 62 66 57 57 88 76 61 36 34 23 49 57 68 93 102 105 132 179 214 206 204 190 163 144 124 114 96 82 84 90 81 81 65 50 51 49 43 37 37
134 106 37 81 42 56 18 71 26 40 24 68 45 35 21 49 67 95 101 105 117 144 169 197 191 185 171 144 128 110 85 80 86 95 94 83 78 70 59 47 52 44 46 44
94 114 117 68 32 51 70 45 40 20 30 50 52 38 36 46 75 91 93 114 140 154 151 148 163 170 155 129 89 85 102 104 106 99 94 82 80 69 67 72 68 57 50 41
94 88 55 68 70 62 60 34 33 15 20 35 60 65 69 77 92 102 135 143 154 169 144 126 142 150 131 91 103 126 127 125 111 102 92 85 90 90 90 95 77 60 58 55
85 61 33 21 16 28 17 -12 25 52 42 19 58 84 85 85 95 105 122 140 158 168 148 117 117 113 116 102 135 147 149 135 123 112 106 97 96 94 90 92 84 69 59 50
52 11 -13 46 2 -17 3 24 11 30 28 64 70 92 105 116 119 119 135 161 178 179 142 116 103 104 132 132 139 156 142 134 128 123 110 92 83 81 96 87 93 72 86 65
57 33 29 -3 -45 -6 64 69 37 42 33 45 83 89 100 112 116 127 139 152 174 158 128 113 116 124 126 142 156 150 145 137 127 119 109 103 90 84 84 80 98 104 83 77
41 57 22 27 -7 26 17 40 44 24 61 58 69 85 94 125 135 143 147 162 158 138 136 122 114 116 119 132 143 145 132 125 121 127 119 112 112 121 93 91 76 71 92 98
13 41 25 30 -1 -33 -27 22 25 41 67 51 65 89 104 111 131 154 147 136 123 108 114 120 107 107 102 116 118 114 116 117 117 125 120 123 126 140 148 110 101 103 101 88
57 46 1 26 33 39 -30 15 25 66 82 83 89 97 107 125 144 141 107 101 109 104 100 98 94 89 101 118 106 97 104 116 120 113 118 126 139 141 151 152 128 106 92 98
24 35 3 34 25 12 40 48 66 91 111 119 105 102 108 117 113 84 102 104 103 98 91 97 91 79 109 123 115 109 104 98 105 112 118 132 157 160 152 151 136 139 136 115
25 40 59 38 37 41 48 75 110 111 114 119 114 107 96 102 103 103 108 115 110 64 67 87 74 71 96 105 95 88 89 102 117 125 152 164 170 174 169 163 154 142 126 114
-5 -19 -20 1 19 41 87 96 112 115 126 118 116 131 125 126 120 101 87 78 75 85 88 90 61 84 100 109 111 100 114 116 123 147 159 170 175 174 172 169 150 132 108 126
65 -5 -7 43 81 128 185 264 251 188 114 91 127 116 128 110 93 101 113 124 117 110 84 70 97 117 116 119 130 135 134 124 136 152 168 174 163 161 158 153 140 137 152 179
29 36 42 65 55 83 89 25 26 73 98 117 114 89 101 110 125 125 122 120 108 104 66 93 127 136 130 125 140 141 143 158 169 174 166 165 155 144 143 140 150 175 199 217
59 87 87 83 82 83 60 59 84 94 94 115 133 137 134 120 120 122 119 121 94 79 102 117 142 140 139 144 154 155 164 168 164 160 158 151 153 159 167 175 187 196 208 215
77 88 91 81 112 120 119 109 108 92 81 94 100 95 105 107 114 122 138 119 95 93 118 136 147 154 155 159 163 168 174 173 164 158 163 174 191 185 188 190 198 202 206 213
66 80 88 94 131 144 142 123 117 103 100 104 108 123 134 130 127 137 111 87 93 107 132 146 153 159 161 171 163 169 169 173 179 187 194 195 191 188 192 201 202 195 193 191
77 74 75 75 88 98 117 108 88 79 79 71 79 92 100 95 101 121 116 97 121 127 145 151 160 169 171 172 175 186 201 206 207 207 194 186 187 194 192 183 183 186 188 191
64 68 62 58 67 78 99 85 90 91 85 84 87 82 97 114 120 105 118 127 148 156 166 168 176 185 196 201 213 218 222 222 215 207 205 204 193 184 182 178 174 180 188 196
57 67 59 62 67 63 74 76 103 102 110 110 98 88 89 100 76 94 134 156 178 194 199 194 213 222 218 217 219 223 218 211 201 196 188 179 169 167 163 167 163 165 166 159
59 57 45 45 51 57 63 69 89 82 102 112 110 104 120 122 147 160 176 195 203 220 225 222 222 223 221 222 227 226 215 202 194 185 171 156 152 150 154 152 150 143 135 132
68 62 70 78 64 63 64 70 82 79 88 94 114 104 124 142 161 186 206 211 220 238 242 233 226 225 227 238 245 236 215 197 178 156 143 137 134 130 129 124 125 124 128 128

GFSNGP_con_3kmhel_171.txt.gz
Helicity
113 81 91 79 84 108 138 155 201 118 122 98 127 110 93 61 77 82 127 164 185 204 298 362 357 278 241 215 208 172 167 149 111 98 76 72 71 65 56 66 67 57 55 43
136 74 53 91 127 151 134 121 133 104 58 86 72 60 65 76 79 75 85 106 135 145 198 283 352 285 198 200 170 175 170 157 119 96 77 72 71 68 71 71 64 60 55 56
113 54 80 113 136 96 93 74 73 78 85 58 59 90 91 72 64 61 51 62 82 121 154 182 270 253 220 231 224 180 183 134 116 91 76 73 67 69 78 72 65 59 58 51
106 98 120 143 77 31 22 25 52 82 103 92 73 73 48 48 38 31 36 39 77 96 109 130 200 229 290 266 221 182 146 119 104 77 78 70 71 73 78 71 71 71 64 51
134 112 75 60 39 42 59 25 21 34 57 29 22 38 37 51 50 37 52 63 68 84 111 132 190 250 274 237 191 157 121 106 80 75 76 70 73 83 80 78 81 77 63 58
128 121 47 68 86 52 36 6 93 62 48 41 35 69 53 45 44 66 83 77 82 78 87 140 186 246 238 193 154 122 103 83 72 69 66 73 75 81 77 83 82 65 68 63
97 117 123 40 60 40 48 61 62 86 76 44 36 32 42 45 63 86 89 97 95 83 84 120 165 189 164 144 117 102 101 95 85 76 79 85 89 86 75 79 86 87 79 64
127 166 86 66 88 41 50 25 8 32 41 49 41 48 38 54 84 100 104 96 88 102 119 123 131 134 130 105 109 107 103 97 95 91 92 87 95 91 84 99 102 97 84 72
126 90 110 84 67 -0 15 -23 -22 -34 22 51 54 40 60 74 94 101 102 95 92 115 146 121 93 94 117 108 119 118 110 103 96 97 90 93 105 100 97 91 89 96 95 92
81 60 26 19 11 -9 -30 6 70 70 53 48 41 62 79 105 110 114 113 114 111 127 147 136 91 87 102 111 114 123 117 113 112 100 95 96 93 93 98 90 86 88 95 98
85 3 23 21 9 -50 -81 -59 12 97 55 60 53 74 85 94 90 111 136 133 127 122 136 127 106 100 101 103 113 123 120 117 106 93 99 103 90 87 84 75 73 84 90 95
72 66 53 30 4 13 6 9 -41 8 161 109 75 72 71 67 85 119 142 152 141 145 146 121 101 102 99 99 112 131 118 106 100 103 95 92 96 104 82 76 73 76 98 100
-9 25 3 -4 13 19 -7 7 12 -27 114 103 53 62 67 74 89 117 142 144 131 119 120 120 105 101 95 97 98 97 97 96 97 94 98 105 107 109 120 112 89 89 99 95
-2 28 -13 -9 12 15 24 1 -19 12 32 57 77 77 75 86 102 114 114 114 114 121 115 101 95 89 85 88 86 83 79 93 96 94 94 97 95 100 115 122 119 116 100 96
7 -16 14 49 53 44 50 28 29 57 81 108 111 102 94 103 96 88 128 117 112 107 96 89 81 79 92 97 100 95 79 73 77 77 78 84 96 108 116 126 137 144 136 115
57 -12 -36 -17 22 54 70 53 48 75 108 119 117 120 107 113 111 137 129 113 107 65 64 69 63 69 80 79 77 73 63 70 73 71 81 87 104 122 131 136 143 143 138 124
-1 10 -14 -27 -16 -6 2 40 56 88 118 120 120 159 148 137 154 132 101 79 78 81 75 78 62 87 91 93 101 77 71 72 76 87 98 115 129 130 135 146 142 143 140 149
23 36 -1 -13 18 47 54 75 124 165 154 183 220 185 144 124 91 93 100 124 122 107 75 73 87 90 88 92 89 79 84 95 101 100 118 128 129 134 142 147 151 151 163 164
15 2 2 4 49 89 77 93 151 208 262 233 223 163 100 87 100 115 129 119 108 97 60 75 94 104 94 98 104 105 112 118 119 128 138 156 162 162 161 156 155 153 159 169
34 46 63 82 103 76 54 61 56 51 42 82 116 130 122 112 126 131 114 108 91 88 100 96 109 116 125 130 141 135 134 137 149 158 158 157 160 160 155 152 148 157 172 180
52 49 72 82 82 75 67 76 94 90 85 87 85 92 117 132 126 124 129 117 98 93 99 113 115 132 137 153 152 149 149 156 156 159 162 164 164 157 156 160 171 180 186 189
42 61 78 81 83 123 130 97 101 99 98 116 130 134 138 126 120 130 106 80 87 90 102 108 124 143 151 164 161 163 166 170 178 180 173 163 159 166 176 180 184 182 180 182
74 68 66 78 91 113 126 129 105 91 95 84 91 91 96 95 90 93 102 91 98 92 110 123 142 166 174 172 172 176 178 180 184 183 181 179 180 179 179 174 171 168 173 177
76 67 62 59 61 83 111 93 106 108 103 90 94 91 100 109 115 104 103 110 119 121 134 142 157 175 183 183 187 191 196 202 202 198 199 198 186 180 173 167 168 169 174 174
62 51 54 49 60 66 75 73 105 106 110 111 96 86 87 89 72 88 117 128 144 157 174 180 195 199 190 190 197 207 207 197 192 191 185 181 173 164 159 157 156 157 160 156
57 46 48 41 46 55 58 56 79 69 80 99 103 95 106 112 133 138 140 152 166 196 199 191 191 201 209 213 217 215 206 200 192 190 181 167 155 151 148 152 152 148 146 142
64 62 67 61 57 60 57 57 70 58 57 77 106 102 118 130 138 149 161 177 196 210 214 208 203 203 201 209 217 213 208 203 192 172 159 148 141 139 142 143 141 134 130 133